This is the latest recevied weather packets stored in our database for station/object KW6V-15. If no packets are shown the sender has not sent any weather packets the latest 10 day(s).
| Time | Temp. | Humidity | Pressure | Rain* | Wind** | Luminosity | Snow |
|---|---|---|---|---|---|---|---|
| 1777539755 | 7.78° C | 90% | 1017.4 hPa | 0 mm | - | - | - |
| 1777537892 | 8.33° C | 90% | 1017.6 hPa | 0 mm | - | - | - |
| 1777534270 | 9.44° C | 89% | 1017.6 hPa | 0 mm | - | - | - |
| 1777532454 | 10° C | 89% | 1017.4 hPa | 0 mm | - | - | - |
| 1777530662 | 10° C | 89% | 1017.5 hPa | 0 mm | - | - | - |
| 1777528849 | 10.56° C | 88% | 1017.6 hPa | 0 mm | - | - | - |
| 1777527044 | 11.11° C | 88% | 1017.8 hPa | 0 mm | - | - | - |
| 1777525271 | 11.11° C | 87% | 1017.9 hPa | 0 mm | - | - | - |
| 1777523437 | 11.11° C | 87% | 1017.9 hPa | 0 mm | - | - | - |
| 1777521643 | 11.11° C | 87% | 1017.8 hPa | 0 mm | - | - | - |
| 1777519849 | 11.67° C | 86% | 1017.8 hPa | 0 mm | - | - | - |
| 1777518049 | 11.67° C | 85% | 1017.7 hPa | 0 mm | - | - | - |
| 1777516306 | 12.22° C | 83% | 1017.5 hPa | 0 mm | - | - | - |
| 1777514466 | 12.78° C | 82% | 1017.5 hPa | 0 mm | - | - | - |
| 1777512647 | 13.33° C | 81% | 1017.5 hPa | 0 mm | - | - | - |
| 1777510869 | 13.89° C | 80% | 1017.7 hPa | 0 mm | - | - | - |
| 1777509058 | 15° C | 78% | 1017.7 hPa | 0 mm | - | - | - |
| 1777507257 | 16.11° C | 74% | 1017.8 hPa | 0 mm | - | - | - |
| 1777505472 | 16.67° C | 73% | 1018.2 hPa | 0 mm | - | - | - |
| 1777503660 | 17.78° C | 72% | 1018.4 hPa | 0 mm | - | - | - |
| 1777501867 | 17.78° C | 71% | 1018.7 hPa | 0 mm | - | - | - |
| 1777500059 | 17.22° C | 72% | 1018.9 hPa | 0 mm | - | - | - |
| 1777498241 | 17.22° C | 73% | 1019 hPa | 0 mm | - | - | - |
| 1777496435 | 17.22° C | 72% | 1019.1 hPa | 0 mm | - | - | - |
| 1777494652 | 17.22° C | 72% | 1019.2 hPa | 0 mm | - | - | - |
* Rain latest hour (hover to see other rain measurements)
** Current wind speed in m/s (hover to see current wind gust speed)